Time,TemperatureF,DewpointF,PressureIn,WindDirection,WindDirectionDegrees,WindSpeedMPH,WindSpeedGustMPH,Humidity,HourlyPrecipIn,Conditions,Clouds,dailyrainin,SoftwareType,DateUTC
2013-03-23 00:06:00,28.8,22.0,30.09,NW,315,0.0,2.0,77,0.00,,,0.00,weatherlink.com 1.10,2013-03-23 04:06:00,
2013-03-23 00:22:00,29.0,22.0,30.08,NW,315,1.0,3.0,76,0.00,,,0.00,weatherlink.com 1.10,2013-03-23 04:22:00,
2013-03-23 00:37:00,29.4,22.0,30.08,NW,315,1.0,3.0,73,0.00,,,0.00,weatherlink.com 1.10,2013-03-23 04:37:00,
2013-03-23 00:51:00,29.7,21.0,30.08,NW,315,0.0,2.0,70,0.00,,,0.00,weatherlink.com 1.10,2013-03-23 04:51:00,
2013-03-23 01:07:00,29.7,21.0,30.09,NW,315,0.0,0.0,70,0.00,,,0.00,weatherlink.com 1.10,2013-03-23 05:07:00,
2013-03-23 01:22:00,28.7,21.0,30.08,NW,315,0.0,0.0,74,0.00,,,0.00,weatherlink.com 1.10,2013-03-23 05:22:00,
2013-03-23 01:36:00,27.7,21.0,30.08,NW,315,0.0,0.0,77,0.00,,,0.00,weatherlink.com 1.10,2013-03-23 05:36:00,
2013-03-23 01:53:00,27.6,21.0,30.07,NW,315,0.0,0.0,76,0.00,,,0.00,weatherlink.com 1.10,2013-03-23 05:53:00,
2013-03-23 02:08:00,27.4,21.0,30.08,NW,315,0.0,0.0,77,0.00,,,0.00,weatherlink.com 1.10,2013-03-23 06:08:00,
2013-03-23 02:22:00,26.7,20.0,30.08,NW,315,0.0,0.0,77,0.00,,,0.00,weatherlink.com 1.10,2013-03-23 06:22:00,
2013-03-23 02:37:00,26.6,21.0,30.08,NW,315,0.0,0.0,79,0.00,,,0.00,weatherlink.com 1.10,2013-03-23 06:37:00,
2013-03-23 02:54:00,27.0,21.0,30.08,NW,315,0.0,0.0,78,0.00,,,0.00,weatherlink.com 1.10,2013-03-23 06:54:00,
2013-03-23 03:08:00,26.5,21.0,30.08,NW,315,0.0,0.0,79,0.00,,,0.00,weatherlink.com 1.10,2013-03-23 07:08:00,
2013-03-23 03:23:00,25.7,21.0,30.08,NW,315,0.0,0.0,81,0.00,,,0.00,weatherlink.com 1.10,2013-03-23 07:23:00,
2013-03-23 03:39:00,25.0,20.0,30.08,NW,315,0.0,0.0,82,0.00,,,0.00,weatherlink.com 1.10,2013-03-23 07:39:00,
2013-03-23 03:56:00,25.6,21.0,30.08,NW,315,0.0,0.0,83,0.00,,,0.00,weatherlink.com 1.10,2013-03-23 07:56:00,
2013-03-23 04:09:00,26.1,22.0,30.08,NW,315,0.0,0.0,84,0.00,,,0.00,weatherlink.com 1.10,2013-03-23 08:09:00,
2013-03-23 04:25:00,26.7,23.0,30.08,NW,315,0.0,0.0,85,0.00,,,0.00,weatherlink.com 1.10,2013-03-23 08:25:00,
2013-03-23 04:40:00,27.0,23.0,30.08,NW,315,0.0,0.0,84,0.00,,,0.00,weatherlink.com 1.10,2013-03-23 08:40:00,
2013-03-23 04:57:00,27.4,23.0,30.07,NW,315,0.0,0.0,83,0.00,,,0.00,weatherlink.com 1.10,2013-03-23 08:57:00,
2013-03-23 05:12:00,27.3,23.0,30.07,NW,315,0.0,0.0,82,0.00,,,0.00,weatherlink.com 1.10,2013-03-23 09:12:00,
2013-03-23 05:27:00,27.2,23.0,30.07,NW,315,0.0,0.0,83,0.00,,,0.00,weatherlink.com 1.10,2013-03-23 09:27:00,
2013-03-23 05:42:00,27.6,23.0,30.07,NW,315,0.0,0.0,83,0.00,,,0.00,weatherlink.com 1.10,2013-03-23 09:42:00,
2013-03-23 05:57:00,27.9,23.0,30.07,NW,315,0.0,0.0,80,0.00,,,0.00,weatherlink.com 1.10,2013-03-23 09:57:00,
2013-03-23 06:12:00,28.4,22.0,30.07,NW,315,2.0,3.0,78,0.00,,,0.00,weatherlink.com 1.10,2013-03-23 10:12:00,
2013-03-23 06:27:00,28.8,23.0,30.08,NW,315,3.0,3.0,78,0.00,,,0.00,weatherlink.com 1.10,2013-03-23 10:27:00,
2013-03-23 06:42:00,28.9,23.0,30.08,NNE,22,0.0,4.0,77,0.00,,,0.00,weatherlink.com 1.10,2013-03-23 10:42:00,
2013-03-23 06:57:00,28.8,23.0,30.08,NNE,22,0.0,2.0,78,0.00,,,0.00,weatherlink.com 1.10,2013-03-23 10:57:00,
2013-03-23 07:12:00,28.5,22.0,30.09,NNE,22,0.0,0.0,78,0.00,,,0.00,weatherlink.com 1.10,2013-03-23 11:12:00,
2013-03-23 07:28:00,28.1,22.0,30.09,NNE,22,0.0,0.0,79,0.00,,,0.00,weatherlink.com 1.10,2013-03-23 11:28:00,
2013-03-23 07:42:00,28.0,22.0,30.10,NNE,22,2.0,2.0,79,0.00,,,0.00,weatherlink.com 1.10,2013-03-23 11:42:00,
2013-03-23 07:58:00,28.2,23.0,30.11,NNE,22,1.0,2.0,80,0.00,,,0.00,weatherlink.com 1.10,2013-03-23 11:58:00,
2013-03-23 08:14:00,28.4,23.0,30.11,NNE,22,2.0,4.0,80,0.00,,,0.00,weatherlink.com 1.10,2013-03-23 12:14:00,
2013-03-23 08:28:00,28.6,23.0,30.11,NNE,22,1.0,5.0,80,0.00,,,0.00,weatherlink.com 1.10,2013-03-23 12:28:00,
2013-03-23 08:44:00,28.8,23.0,30.11,NNE,22,2.0,4.0,80,0.00,,,0.00,weatherlink.com 1.10,2013-03-23 12:44:00,
2013-03-23 08:58:00,29.1,24.0,30.12,NNE,22,2.0,4.0,80,0.00,,,0.00,weatherlink.com 1.10,2013-03-23 12:58:00,
2013-03-23 09:14:00,29.3,24.0,30.12,NNE,22,4.0,5.0,80,0.00,,,0.00,weatherlink.com 1.10,2013-03-23 13:14:00,
2013-03-23 09:30:00,30.0,25.0,30.12,NNE,22,4.0,5.0,80,0.00,,,0.00,weatherlink.com 1.10,2013-03-23 13:30:00,
2013-03-23 09:45:00,30.6,25.0,30.11,NNE,22,4.0,5.0,79,0.00,,,0.00,weatherlink.com 1.10,2013-03-23 13:45:00,
2013-03-23 09:59:00,32.1,26.0,30.11,NNE,22,2.0,5.0,78,0.00,,,0.00,weatherlink.com 1.10,2013-03-23 13:59:00,
2013-03-23 10:16:00,33.4,25.0,30.11,NNE,22,3.0,5.0,72,0.00,,,0.00,weatherlink.com 1.10,2013-03-23 14:16:00,
2013-03-23 10:32:00,33.5,25.0,30.12,NNE,22,2.0,7.0,72,0.00,,,0.00,weatherlink.com 1.10,2013-03-23 14:32:00,
2013-03-23 10:47:00,33.9,25.0,30.12,NNE,22,2.0,4.0,70,0.00,,,0.00,weatherlink.com 1.10,2013-03-23 14:47:00,
2013-03-23 11:02:00,34.3,25.0,30.13,North,360,5.0,5.0,68,0.00,,,0.00,weatherlink.com 1.10,2013-03-23 15:02:00,
2013-03-23 11:16:00,35.7,25.0,30.12,North,11,0.0,4.0,64,0.00,,,0.00,weatherlink.com 1.10,2013-03-23 15:16:00,
2013-03-23 11:31:00,36.2,24.0,30.13,North,351,3.0,6.0,62,0.00,,,0.00,weatherlink.com 1.10,2013-03-23 15:31:00,
2013-03-23 11:47:00,36.7,24.0,30.12,North,350,3.0,4.0,60,0.00,,,0.00,weatherlink.com 1.10,2013-03-23 15:47:00,
2013-03-23 12:03:00,37.5,24.0,30.12,NNE,26,5.0,7.0,58,0.00,,,0.00,weatherlink.com 1.10,2013-03-23 16:03:00,
2013-03-23 12:18:00,38.1,25.0,30.12,NNW,338,4.0,8.0,59,0.00,,,0.00,weatherlink.com 1.10,2013-03-23 16:18:00,
2013-03-23 12:32:00,38.3,25.0,30.12,North,349,3.0,11.0,60,0.00,,,0.00,weatherlink.com 1.10,2013-03-23 16:32:00,
2013-03-23 12:49:00,38.3,25.0,30.12,WNW,288,3.0,9.0,60,0.00,,,0.00,weatherlink.com 1.10,2013-03-23 16:49:00,
2013-03-23 13:03:00,39.3,26.0,30.11,NNW,348,7.0,9.0,59,0.00,,,0.00,weatherlink.com 1.10,2013-03-23 17:03:00,
2013-03-23 13:19:00,40.2,25.0,30.11,WSW,250,3.0,7.0,56,0.00,,,0.00,weatherlink.com 1.10,2013-03-23 17:19:00,
2013-03-23 13:34:00,40.1,26.0,30.10,NW,315,5.0,8.0,57,0.00,,,0.00,weatherlink.com 1.10,2013-03-23 17:34:00,
2013-03-23 13:49:00,40.7,25.0,30.10,NW,304,4.0,9.0,55,0.00,,,0.00,weatherlink.com 1.10,2013-03-23 17:49:00,
2013-03-23 14:04:00,41.3,24.0,30.10,WNW,291,0.0,8.0,51,0.00,,,0.00,weatherlink.com 1.10,2013-03-23 18:04:00,
2013-03-23 14:19:00,41.5,26.0,30.10,NW,308,5.0,10.0,54,0.00,,,0.00,weatherlink.com 1.10,2013-03-23 18:19:00,
2013-03-23 14:35:00,42.1,25.0,30.09,North,5,8.0,10.0,50,0.00,,,0.00,weatherlink.com 1.10,2013-03-23 18:35:00,
2013-03-23 15:07:00,43.1,26.0,30.07,NE,38,10.0,13.0,52,0.00,,,0.00,weatherlink.com 1.10,2013-03-23 19:07:00,
2013-03-23 15:22:00,43.1,26.0,30.07,NE,51,7.0,10.0,51,0.00,,,0.00,weatherlink.com 1.10,2013-03-23 19:22:00,
2013-03-23 15:37:00,43.4,27.0,30.07,NE,38,5.0,8.0,52,0.00,,,0.00,weatherlink.com 1.10,2013-03-23 19:37:00,
2013-03-23 15:52:00,43.8,27.0,30.07,NE,51,6.0,6.0,53,0.00,,,0.00,weatherlink.com 1.10,2013-03-23 19:52:00,
2013-03-23 16:06:00,44.5,27.0,30.07,North,5,3.0,9.0,50,0.00,,,0.00,weatherlink.com 1.10,2013-03-23 20:06:00,
2013-03-23 16:21:00,44.4,27.0,30.07,NNE,13,3.0,7.0,50,0.00,,,0.00,weatherlink.com 1.10,2013-03-23 20:21:00,
2013-03-23 16:36:00,45.2,27.0,30.06,NNE,25,7.0,7.0,50,0.00,,,0.00,weatherlink.com 1.10,2013-03-23 20:36:00,
2013-03-23 16:52:00,45.1,26.0,30.06,North,355,5.0,8.0,48,0.00,,,0.00,weatherlink.com 1.10,2013-03-23 20:52:00,
2013-03-23 17:07:00,44.2,26.0,30.05,North,351,5.0,7.0,49,0.00,,,0.00,weatherlink.com 1.10,2013-03-23 21:07:00,
2013-03-23 17:22:00,44.2,27.0,30.05,NNW,338,5.0,7.0,51,0.00,,,0.00,weatherlink.com 1.10,2013-03-23 21:22:00,
2013-03-23 17:38:00,45.7,29.0,30.04,NNE,13,4.0,10.0,52,0.00,,,0.00,weatherlink.com 1.10,2013-03-23 21:38:00,
2013-03-23 17:53:00,46.6,29.0,30.04,NE,40,6.0,9.0,50,0.00,,,0.00,weatherlink.com 1.10,2013-03-23 21:53:00,
2013-03-23 18:09:00,45.3,27.0,30.03,NNW,327,6.0,8.0,50,0.00,,,0.00,weatherlink.com 1.10,2013-03-23 22:09:00,
2013-03-23 18:23:00,45.5,29.0,30.04,NE,36,6.0,8.0,52,0.00,,,0.00,weatherlink.com 1.10,2013-03-23 22:23:00,
2013-03-23 18:39:00,45.4,28.0,30.04,NNE,28,7.0,8.0,51,0.00,,,0.00,weatherlink.com 1.10,2013-03-23 22:39:00,
2013-03-23 18:54:00,45.5,28.0,30.03,NNE,27,6.0,8.0,51,0.00,,,0.00,weatherlink.com 1.10,2013-03-23 22:54:00,
2013-03-23 19:09:00,44.5,28.0,30.03,NE,38,2.0,8.0,53,0.00,,,0.00,weatherlink.com 1.10,2013-03-23 23:09:00,
2013-03-23 19:25:00,44.3,28.0,30.03,NE,41,4.0,7.0,53,0.00,,,0.00,weatherlink.com 1.10,2013-03-23 23:25:00,
2013-03-23 19:40:00,43.7,28.0,30.04,NE,40,3.0,5.0,54,0.00,,,0.00,weatherlink.com 1.10,2013-03-23 23:40:00,
2013-03-23 19:56:00,42.5,28.0,30.03,NE,45,0.0,4.0,56,0.00,,,0.00,weatherlink.com 1.10,2013-03-23 23:56:00,
2013-03-23 20:27:00,40.4,28.0,30.03,NE,46,2.0,4.0,61,0.00,,,0.00,weatherlink.com 1.10,2013-03-24 00:27:00,
2013-03-23 20:42:00,39.0,29.0,30.02,ENE,61,3.0,8.0,68,0.00,,,0.00,weatherlink.com 1.10,2013-03-24 00:42:00,
2013-03-23 20:56:00,37.6,29.0,30.02,ENE,74,3.0,8.0,71,0.00,,,0.00,weatherlink.com 1.10,2013-03-24 00:56:00,
2013-03-23 21:12:00,36.7,29.0,30.03,East,94,3.0,5.0,73,0.00,,,0.00,weatherlink.com 1.10,2013-03-24 01:12:00,
2013-03-23 21:27:00,35.7,29.0,30.03,ENE,77,4.0,7.0,76,0.00,,,0.00,weatherlink.com 1.10,2013-03-24 01:27:00,
2013-03-23 21:42:00,35.2,29.0,30.03,East,80,5.0,9.0,77,0.00,,,0.00,weatherlink.com 1.10,2013-03-24 01:42:00,
2013-03-23 21:57:00,34.9,28.0,30.02,East,88,7.0,12.0,77,0.00,,,0.00,weatherlink.com 1.10,2013-03-24 01:57:00,
2013-03-23 22:12:00,34.9,28.0,30.02,East,84,5.0,8.0,77,0.00,,,0.00,weatherlink.com 1.10,2013-03-24 02:12:00,
2013-03-23 22:28:00,34.4,28.0,30.01,East,85,8.0,9.0,78,0.00,,,0.00,weatherlink.com 1.10,2013-03-24 02:28:00,
2013-03-23 22:44:00,33.9,28.0,30.01,East,80,7.0,10.0,79,0.00,,,0.00,weatherlink.com 1.10,2013-03-24 02:44:00,
2013-03-23 22:58:00,34.1,28.0,30.00,ENE,76,9.0,12.0,77,0.00,,,0.00,weatherlink.com 1.10,2013-03-24 02:58:00,
2013-03-23 23:14:00,34.1,27.0,29.99,East,80,10.0,13.0,76,0.00,,,0.00,weatherlink.com 1.10,2013-03-24 03:14:00,
2013-03-23 23:30:00,33.8,27.0,29.98,ENE,75,10.0,13.0,77,0.00,,,0.00,weatherlink.com 1.10,2013-03-24 03:30:00,
2013-03-23 23:45:00,33.5,27.0,29.98,ENE,74,8.0,15.0,78,0.00,,,0.00,weatherlink.com 1.10,2013-03-24 03:45:00,
2013-03-23 23:59:00,33.3,27.0,29.97,East,79,9.0,15.0,77,0.00,,,0.00,weatherlink.com 1.10,2013-03-24 03:59:00,